Weather in Pavlovskoe

Russia / Vladimir Oblast     56°16′58″N   40°00′04″E
temp.,
°C
wind,
m/s
gust,
m/s
humid.,
%
clouds,
%
prec.,
mm/h
press.,
hPa
HPBL,
m
5 august, thu
thu500:00+15wnw115932 0.0 101711
03:00+14w006428 0.0 101711
06:00+15sw1163100 0.0 101846
09:00+19s225478 0.0 1018365
12:00+24s134168 0.0 10172002
15:00+22se2250100 0.0 101687
18:00+22ese3649100 0.0 1015243
21:00+15n2292100 1.3 101639
6 august, fri
fri600:00+15e3690100 0.2 1014136
03:00+15se3784100 0.3 1014143
06:00+15sse2689100 0.4 1013181
09:00+15s41093100 0.8 1014371
12:00+16sse4897100 0.9 1014312
15:00+16sse3797100 8.9 1014294
18:00+15e3495100 1.4 101397
21:00+15e599595 1.4 1012193
7 august, sat
sat700:00+16ene51294100 0.1 1012349
03:00+15e5995100 0.1 1011246
06:00+16ese4996100 1.3 1011275
09:00+20se468047 2.3 1012450
12:00+24sse456799 0.6 1011607
15:00+19se3591100 1.4 1012158
18:00+24e3472100 0.0 1011211
21:00+21e477497 0.0 1011109
8 august, sun
sun800:00+21se51561100 0.0 1011347
03:00+19sse41362100 0.0 1011282
06:00+18s2371100 0.1 101151
09:00+21sw346799 0.4 1012317
12:00+20sw2381100 0.3 1013193
15:00+22w2375100 0.4 1013618
18:00+23wsw36620 0.0 10131166
21:00+18w36720 0.0 101488
9 august, mon
mon900:00+16w33820 0.0 101536
03:00+15w338897 0.0 101550
06:00+15w258837 0.0 1016152
09:00+20w356787 0.0 1016677
12:00+24wnw565248 0.0 10151757
15:00+25nw454772 0.0 10151876
18:00+24nnw24545 0.0 1014408
21:00+19wnw226411 0.0 101513